Time,TemperatureF,DewpointF,PressureIn,WindDirection,WindDirectionDegrees,WindSpeedMPH,WindSpeedGustMPH,Humidity,HourlyPrecipIn,Conditions,Clouds,dailyrainin,SoftwareType,DateUTC
2013-05-24 00:01:00,70.7,70.2,29.83,West,270,0.0,2.0,98,0.00,,,0.00,meteohub,2013-05-24 04:01:00,
2013-05-24 00:02:00,70.7,70.2,29.82,West,270,0.0,2.0,98,0.00,,,0.00,meteohub,2013-05-24 04:02:00,
2013-05-24 00:07:00,70.7,70.2,29.83,West,270,0.0,2.0,98,0.00,,,0.00,meteohub,2013-05-24 04:07:00,
2013-05-24 00:12:00,70.3,69.8,29.83,West,270,2.0,2.0,98,0.01,,,0.01,meteohub,2013-05-24 04:12:00,
2013-05-24 00:17:00,69.4,68.9,29.83,NW,315,0.0,2.0,98,0.02,,,0.02,meteohub,2013-05-24 04:17:00,
2013-05-24 00:22:00,68.9,68.4,29.84,NW,315,0.0,2.0,98,0.02,,,0.02,meteohub,2013-05-24 04:22:00,
2013-05-24 00:27:00,68.4,67.8,29.84,North,0,0.0,2.0,98,0.02,,,0.02,meteohub,2013-05-24 04:27:00,
2013-05-24 00:32:00,68.0,67.1,29.84,North,0,0.0,2.0,97,0.02,,,0.02,meteohub,2013-05-24 04:32:00,
2013-05-24 00:37:00,67.5,66.9,29.84,North,0,0.0,2.0,98,0.02,,,0.02,meteohub,2013-05-24 04:37:00,
2013-05-24 00:42:00,67.1,66.6,29.84,North,0,0.0,2.0,98,0.02,,,0.02,meteohub,2013-05-24 04:42:00,
2013-05-24 00:47:00,66.7,66.2,29.84,North,0,0.0,0.0,98,0.02,,,0.02,meteohub,2013-05-24 04:47:00,
2013-05-24 00:52:00,66.6,66.2,29.84,North,0,0.0,0.0,99,0.02,,,0.02,meteohub,2013-05-24 04:52:00,
2013-05-24 00:57:00,66.4,66.0,29.84,North,0,0.0,0.0,99,0.02,,,0.02,meteohub,2013-05-24 04:57:00,
2013-05-24 01:02:00,66.4,66.0,29.84,East,90,0.0,0.0,99,0.02,,,0.02,meteohub,2013-05-24 05:02:00,
2013-05-24 01:07:00,66.4,66.0,29.83,East,90,0.0,0.0,99,0.02,,,0.02,meteohub,2013-05-24 05:07:00,
2013-05-24 01:12:00,66.2,65.8,29.83,East,90,0.0,1.0,99,0.00,,,0.02,meteohub,2013-05-24 05:12:00,
2013-05-24 01:17:00,66.0,65.7,29.82,East,90,0.0,1.0,99,0.00,,,0.02,meteohub,2013-05-24 05:17:00,
2013-05-24 01:22:00,65.8,65.5,29.83,East,90,0.0,1.0,99,0.00,,,0.02,meteohub,2013-05-24 05:22:00,
2013-05-24 01:27:00,65.8,65.5,29.82,East,90,0.0,0.0,99,0.00,,,0.02,meteohub,2013-05-24 05:27:00,
2013-05-24 01:32:00,65.7,65.3,29.82,East,90,0.0,0.0,99,0.00,,,0.02,meteohub,2013-05-24 05:32:00,
2013-05-24 01:37:00,65.5,65.1,29.82,East,90,0.0,0.0,99,0.00,,,0.02,meteohub,2013-05-24 05:37:00,
2013-05-24 01:42:00,65.5,65.1,29.82,East,90,0.0,0.0,99,0.00,,,0.02,meteohub,2013-05-24 05:42:00,
2013-05-24 01:47:00,65.3,64.9,29.82,East,90,0.0,0.0,99,0.00,,,0.02,meteohub,2013-05-24 05:47:00,
2013-05-24 01:52:00,65.3,64.9,29.82,East,90,0.0,0.0,99,0.00,,,0.02,meteohub,2013-05-24 05:52:00,
2013-05-24 01:57:00,65.3,64.9,29.82,East,90,0.0,0.0,99,0.00,,,0.02,meteohub,2013-05-24 05:57:00,
2013-05-24 02:02:00,65.3,64.9,29.81,West,270,0.0,0.0,99,0.00,,,0.02,meteohub,2013-05-24 06:02:00,
2013-05-24 02:07:00,65.3,64.9,29.81,West,270,0.0,0.0,99,0.00,,,0.02,meteohub,2013-05-24 06:07:00,
2013-05-24 02:12:00,65.1,64.8,29.81,NE,45,0.0,0.0,99,0.00,,,0.02,meteohub,2013-05-24 06:12:00,
2013-05-24 02:17:00,64.9,64.6,29.81,NE,45,0.0,0.0,99,0.00,,,0.02,meteohub,2013-05-24 06:17:00,
2013-05-24 02:22:00,64.9,64.6,29.81,NE,45,0.0,0.0,99,0.00,,,0.02,meteohub,2013-05-24 06:22:00,
2013-05-24 02:27:00,64.9,64.6,29.81,NE,45,0.0,0.0,99,0.00,,,0.02,meteohub,2013-05-24 06:27:00,
2013-05-24 02:32:00,64.9,64.6,29.81,NE,45,0.0,0.0,99,0.00,,,0.02,meteohub,2013-05-24 06:32:00,
2013-05-24 02:37:00,64.8,64.4,29.81,NE,45,0.0,0.0,99,0.00,,,0.02,meteohub,2013-05-24 06:37:00,
2013-05-24 02:42:00,64.9,64.6,29.82,West,270,0.0,0.0,99,0.00,,,0.02,meteohub,2013-05-24 06:42:00,
2013-05-24 02:47:00,64.9,64.6,29.82,SE,135,0.0,0.0,99,0.00,,,0.02,meteohub,2013-05-24 06:47:00,
2013-05-24 02:52:00,65.1,64.8,29.82,NE,45,0.0,0.0,99,0.00,,,0.02,meteohub,2013-05-24 06:52:00,
2013-05-24 02:57:00,65.1,64.8,29.82,South,180,0.0,0.0,99,0.00,,,0.02,meteohub,2013-05-24 06:57:00,
2013-05-24 03:02:00,65.3,64.9,29.81,South,180,0.0,0.0,99,0.00,,,0.02,meteohub,2013-05-24 07:02:00,
2013-05-24 03:07:00,65.3,64.9,29.81,South,180,0.0,0.0,99,0.00,,,0.02,meteohub,2013-05-24 07:07:00,
2013-05-24 03:12:00,65.3,64.9,29.82,South,180,0.0,0.0,99,0.00,,,0.02,meteohub,2013-05-24 07:12:00,
2013-05-24 03:17:00,65.3,64.9,29.81,SE,135,0.0,0.0,99,0.00,,,0.02,meteohub,2013-05-24 07:17:00,
2013-05-24 03:22:00,65.3,64.9,29.81,SE,135,0.0,0.0,99,0.00,,,0.02,meteohub,2013-05-24 07:22:00,
2013-05-24 03:27:00,65.3,64.9,29.81,East,90,0.0,0.0,99,0.00,,,0.02,meteohub,2013-05-24 07:27:00,
2013-05-24 03:32:00,65.1,64.8,29.80,East,90,0.0,0.0,99,0.00,,,0.02,meteohub,2013-05-24 07:32:00,
2013-05-24 03:37:00,64.9,64.6,29.80,East,90,0.0,0.0,99,0.00,,,0.02,meteohub,2013-05-24 07:37:00,
2013-05-24 03:42:00,64.8,64.4,29.80,East,90,0.0,0.0,99,0.00,,,0.02,meteohub,2013-05-24 07:42:00,
2013-05-24 03:47:00,64.6,64.2,29.80,East,90,0.0,0.0,99,0.00,,,0.02,meteohub,2013-05-24 07:47:00,
2013-05-24 03:52:00,64.4,64.0,29.81,East,90,0.0,0.0,99,0.00,,,0.02,meteohub,2013-05-24 07:52:00,
2013-05-24 03:57:00,64.2,63.3,29.81,East,90,0.0,0.0,97,0.00,,,0.02,meteohub,2013-05-24 07:57:00,
2013-05-24 04:02:00,64.2,63.3,29.81,East,90,0.0,0.0,97,0.00,,,0.02,meteohub,2013-05-24 08:02:00,
2013-05-24 04:07:00,64.2,63.3,29.81,East,90,0.0,0.0,97,0.00,,,0.02,meteohub,2013-05-24 08:07:00,
2013-05-24 04:12:00,64.2,63.3,29.81,East,90,0.0,0.0,97,0.00,,,0.02,meteohub,2013-05-24 08:12:00,
2013-05-24 04:17:00,64.4,64.0,29.81,East,90,0.0,0.0,99,0.00,,,0.02,meteohub,2013-05-24 08:17:00,
2013-05-24 04:22:00,64.2,63.3,29.81,East,90,0.0,0.0,97,0.00,,,0.02,meteohub,2013-05-24 08:22:00,
2013-05-24 04:27:00,64.4,64.0,29.81,East,90,0.0,0.0,99,0.00,,,0.02,meteohub,2013-05-24 08:27:00,
2013-05-24 04:32:00,64.4,64.0,29.82,East,90,0.0,0.0,99,0.00,,,0.02,meteohub,2013-05-24 08:32:00,
2013-05-24 04:37:00,64.4,64.0,29.81,East,90,0.0,0.0,99,0.00,,,0.02,meteohub,2013-05-24 08:37:00,
2013-05-24 04:42:00,64.4,64.0,29.82,East,90,0.0,0.0,99,0.00,,,0.02,meteohub,2013-05-24 08:42:00,
2013-05-24 04:47:00,64.2,63.3,29.81,East,90,0.0,0.0,97,0.00,,,0.02,meteohub,2013-05-24 08:47:00,
2013-05-24 04:52:00,64.2,63.3,29.81,East,90,0.0,0.0,97,0.00,,,0.02,meteohub,2013-05-24 08:52:00,
2013-05-24 04:57:00,64.2,63.3,29.82,East,90,0.0,0.0,97,0.00,,,0.02,meteohub,2013-05-24 08:57:00,
2013-05-24 05:02:00,64.0,63.1,29.82,East,90,0.0,0.0,97,0.00,,,0.02,meteohub,2013-05-24 09:02:00,
2013-05-24 05:07:00,64.0,63.1,29.82,East,90,0.0,0.0,97,0.00,,,0.02,meteohub,2013-05-24 09:07:00,
2013-05-24 05:12:00,63.9,63.0,29.82,East,90,0.0,0.0,97,0.00,,,0.02,meteohub,2013-05-24 09:12:00,
2013-05-24 05:17:00,63.9,63.0,29.81,East,90,0.0,0.0,97,0.00,,,0.02,meteohub,2013-05-24 09:17:00,
2013-05-24 05:22:00,63.9,63.0,29.82,East,90,0.0,0.0,97,0.00,,,0.02,meteohub,2013-05-24 09:22:00,
2013-05-24 05:27:00,63.9,63.0,29.82,East,90,0.0,0.0,97,0.00,,,0.02,meteohub,2013-05-24 09:27:00,
2013-05-24 05:32:00,63.9,63.0,29.82,East,90,0.0,0.0,97,0.00,,,0.02,meteohub,2013-05-24 09:32:00,
2013-05-24 05:37:00,63.7,62.8,29.82,East,90,0.0,0.0,97,0.00,,,0.02,meteohub,2013-05-24 09:37:00,
2013-05-24 05:42:00,63.5,62.6,29.82,East,90,0.0,0.0,97,0.00,,,0.02,meteohub,2013-05-24 09:42:00,
2013-05-24 05:47:00,63.5,62.6,29.83,East,90,0.0,0.0,97,0.00,,,0.02,meteohub,2013-05-24 09:47:00,
2013-05-24 05:52:00,63.5,62.6,29.82,East,90,0.0,0.0,97,0.00,,,0.02,meteohub,2013-05-24 09:52:00,
2013-05-24 05:57:00,63.5,62.6,29.83,East,90,0.0,0.0,97,0.00,,,0.02,meteohub,2013-05-24 09:57:00,
2013-05-24 06:02:00,63.5,62.6,29.83,East,90,0.0,0.0,97,0.00,,,0.02,meteohub,2013-05-24 10:02:00,
2013-05-24 06:07:00,63.5,62.6,29.84,East,90,0.0,0.0,97,0.00,,,0.02,meteohub,2013-05-24 10:07:00,
2013-05-24 06:12:00,63.7,62.8,29.83,East,90,0.0,0.0,97,0.00,,,0.02,meteohub,2013-05-24 10:12:00,
2013-05-24 06:17:00,63.9,63.0,29.84,East,90,0.0,0.0,97,0.00,,,0.02,meteohub,2013-05-24 10:17:00,
2013-05-24 06:22:00,63.9,63.0,29.84,NE,45,0.0,0.0,97,0.00,,,0.02,meteohub,2013-05-24 10:22:00,
2013-05-24 06:27:00,64.0,63.1,29.85,West,270,0.0,0.0,97,0.00,,,0.02,meteohub,2013-05-24 10:27:00,
2013-05-24 06:32:00,64.0,63.1,29.85,NE,45,0.0,0.0,97,0.00,,,0.02,meteohub,2013-05-24 10:32:00,
2013-05-24 06:37:00,64.0,63.1,29.86,NW,315,0.0,0.0,97,0.00,,,0.02,meteohub,2013-05-24 10:37:00,
2013-05-24 06:42:00,64.2,63.3,29.85,NE,45,0.0,0.0,97,0.00,,,0.02,meteohub,2013-05-24 10:42:00,
2013-05-24 06:47:00,64.2,63.3,29.86,NE,45,0.0,0.0,97,0.00,,,0.02,meteohub,2013-05-24 10:47:00,
2013-05-24 06:52:00,64.2,63.3,29.85,NE,45,0.0,0.0,97,0.00,,,0.02,meteohub,2013-05-24 10:52:00,
2013-05-24 06:57:00,64.2,63.3,29.85,North,0,0.0,0.0,97,0.00,,,0.02,meteohub,2013-05-24 10:57:00,
2013-05-24 07:03:00,64.2,63.3,29.86,South,180,0.0,0.0,97,0.00,,,0.02,meteohub,2013-05-24 11:03:00,
2013-05-24 07:08:00,64.2,63.3,29.86,NW,315,0.0,0.0,97,0.00,,,0.02,meteohub,2013-05-24 11:08:00,
2013-05-24 07:13:00,64.0,63.1,29.86,East,90,0.0,0.0,97,0.00,,,0.02,meteohub,2013-05-24 11:13:00,
2013-05-24 07:18:00,64.2,63.3,29.86,NE,45,0.0,0.0,97,0.00,,,0.02,meteohub,2013-05-24 11:18:00,
2013-05-24 07:23:00,64.4,64.0,29.86,NE,45,0.0,0.0,99,0.00,,,0.02,meteohub,2013-05-24 11:23:00,
2013-05-24 07:28:00,64.8,64.4,29.86,West,270,0.0,0.0,99,0.00,,,0.02,meteohub,2013-05-24 11:28:00,
2013-05-24 07:33:00,64.9,64.6,29.86,North,0,0.0,0.0,99,0.00,,,0.02,meteohub,2013-05-24 11:33:00,
2013-05-24 07:38:00,65.1,64.8,29.86,SW,225,0.0,0.0,99,0.00,,,0.02,meteohub,2013-05-24 11:38:00,
2013-05-24 07:43:00,65.3,64.9,29.86,North,0,0.0,0.0,99,0.00,,,0.02,meteohub,2013-05-24 11:43:00,
2013-05-24 07:48:00,65.5,64.9,29.86,West,270,0.0,0.0,98,0.00,,,0.02,meteohub,2013-05-24 11:48:00,
2013-05-24 07:53:00,65.7,64.8,29.86,North,0,0.0,0.0,97,0.00,,,0.02,meteohub,2013-05-24 11:53:00,
2013-05-24 07:58:00,65.8,64.9,29.86,West,270,0.0,0.0,97,0.00,,,0.02,meteohub,2013-05-24 11:58:00,
2013-05-24 08:03:00,65.8,64.6,29.86,NE,45,0.0,0.0,96,0.00,,,0.02,meteohub,2013-05-24 12:03:00,
2013-05-24 08:08:00,66.4,64.9,29.86,SW,225,0.0,0.0,95,0.00,,,0.02,meteohub,2013-05-24 12:08:00,
2013-05-24 08:13:00,66.9,65.1,29.87,NW,315,0.0,2.0,94,0.00,,,0.02,meteohub,2013-05-24 12:13:00,
2013-05-24 08:18:00,67.1,64.8,29.87,North,0,0.0,2.0,92,0.00,,,0.02,meteohub,2013-05-24 12:18:00,
2013-05-24 08:23:00,66.9,64.2,29.87,NW,315,0.0,2.0,91,0.00,,,0.02,meteohub,2013-05-24 12:23:00,
2013-05-24 08:28:00,66.9,64.2,29.88,NE,45,0.0,2.0,91,0.00,,,0.02,meteohub,2013-05-24 12:28:00,
2013-05-24 08:33:00,66.9,64.2,29.88,NE,45,0.0,0.0,91,0.00,,,0.02,meteohub,2013-05-24 12:33:00,
2013-05-24 08:38:00,66.7,64.0,29.88,West,270,0.0,0.0,91,0.00,,,0.02,meteohub,2013-05-24 12:38:00,
2013-05-24 08:43:00,66.6,64.2,29.88,SW,225,0.0,0.0,92,0.00,,,0.02,meteohub,2013-05-24 12:43:00,
2013-05-24 08:48:00,66.6,64.2,29.89,NE,45,0.0,1.0,92,0.00,,,0.02,meteohub,2013-05-24 12:48:00,
2013-05-24 08:53:00,66.4,64.2,29.89,NE,45,0.0,1.0,93,0.00,,,0.02,meteohub,2013-05-24 12:53:00,
2013-05-24 08:58:00,66.2,64.0,29.89,NE,45,0.0,1.0,93,0.00,,,0.02,meteohub,2013-05-24 12:58:00,
2013-05-24 09:03:00,66.4,64.2,29.90,NE,45,0.0,0.0,93,0.00,,,0.02,meteohub,2013-05-24 13:03:00,
2013-05-24 09:08:00,66.6,64.2,29.90,NW,315,0.0,0.0,92,0.00,,,0.02,meteohub,2013-05-24 13:08:00,
2013-05-24 09:13:00,66.7,64.4,29.90,West,270,0.0,0.0,92,0.00,,,0.02,meteohub,2013-05-24 13:13:00,
2013-05-24 09:18:00,67.5,65.1,29.90,NW,315,2.0,0.0,92,0.00,,,0.02,meteohub,2013-05-24 13:18:00,
2013-05-24 09:23:00,68.5,64.8,29.90,NW,315,1.0,2.0,88,0.00,,,0.02,meteohub,2013-05-24 13:23:00,
2013-05-24 09:28:00,69.4,65.1,29.90,NW,315,1.0,2.0,86,0.00,,,0.02,meteohub,2013-05-24 13:28:00,
2013-05-24 09:33:00,70.3,64.9,29.90,West,270,3.0,3.0,83,0.00,,,0.02,meteohub,2013-05-24 13:33:00,
2013-05-24 09:38:00,70.9,64.0,29.90,SW,225,2.0,3.0,79,0.00,,,0.02,meteohub,2013-05-24 13:38:00,
2013-05-24 09:43:00,71.4,64.2,29.90,NW,315,4.0,4.0,78,0.00,,,0.02,meteohub,2013-05-24 13:43:00,
2013-05-24 09:48:00,71.2,63.3,29.91,NW,315,4.0,4.0,76,0.00,,,0.02,meteohub,2013-05-24 13:48:00,
2013-05-24 09:53:00,71.1,63.1,29.91,NW,315,3.0,5.0,76,0.00,,,0.02,meteohub,2013-05-24 13:53:00,
2013-05-24 09:58:00,71.2,63.7,29.91,North,0,4.0,5.0,77,0.00,,,0.02,meteohub,2013-05-24 13:58:00,
2013-05-24 10:03:00,71.1,63.1,29.91,SW,225,4.0,6.0,76,0.00,,,0.02,meteohub,2013-05-24 14:03:00,
2013-05-24 10:08:00,71.2,63.7,29.91,NW,315,3.0,6.0,77,0.00,,,0.02,meteohub,2013-05-24 14:08:00,
2013-05-24 10:13:00,71.1,63.5,29.91,North,0,2.0,6.0,77,0.00,,,0.02,meteohub,2013-05-24 14:13:00,
2013-05-24 10:18:00,70.9,63.3,29.92,North,0,2.0,4.0,77,0.00,,,0.02,meteohub,2013-05-24 14:18:00,
2013-05-24 10:23:00,70.7,63.1,29.92,North,0,2.0,3.0,77,0.00,,,0.02,meteohub,2013-05-24 14:23:00,
2013-05-24 10:28:00,71.1,63.9,29.93,West,270,2.0,4.0,78,0.00,,,0.02,meteohub,2013-05-24 14:28:00,
2013-05-24 10:33:00,72.3,63.5,29.93,North,0,2.0,4.0,74,0.00,,,0.02,meteohub,2013-05-24 14:33:00,
2013-05-24 10:38:00,71.8,62.6,29.93,West,270,4.0,4.0,73,0.00,,,0.02,meteohub,2013-05-24 14:38:00,
2013-05-24 10:43:00,71.8,62.2,29.93,West,270,3.0,6.0,72,0.00,,,0.02,meteohub,2013-05-24 14:43:00,
2013-05-24 10:48:00,72.5,61.3,29.93,NW,315,2.0,6.0,68,0.00,,,0.02,meteohub,2013-05-24 14:48:00,
2013-05-24 10:53:00,73.0,61.5,29.93,NW,315,4.0,8.0,67,0.00,,,0.02,meteohub,2013-05-24 14:53:00,
2013-05-24 10:58:00,72.5,60.1,29.94,West,270,7.0,8.0,65,0.00,,,0.02,meteohub,2013-05-24 14:58:00,
2013-05-24 11:03:00,72.0,59.2,29.94,NW,315,7.0,8.0,64,0.00,,,0.02,meteohub,2013-05-24 15:03:00,
2013-05-24 11:08:00,71.4,59.5,29.95,West,270,3.0,8.0,66,0.00,,,0.02,meteohub,2013-05-24 15:08:00,
2013-05-24 11:13:00,71.6,59.2,29.95,North,0,8.0,8.0,65,0.00,,,0.02,meteohub,2013-05-24 15:13:00,
2013-05-24 11:18:00,72.7,59.7,29.95,NW,315,4.0,8.0,64,0.00,,,0.02,meteohub,2013-05-24 15:18:00,
2013-05-24 11:23:00,73.4,61.0,29.95,North,0,2.0,8.0,65,0.00,,,0.02,meteohub,2013-05-24 15:23:00,
2013-05-24 11:28:00,73.2,59.9,29.95,West,270,4.0,8.0,63,0.00,,,0.02,meteohub,2013-05-24 15:28:00,
2013-05-24 11:33:00,72.5,59.2,29.95,North,0,4.0,8.0,63,0.01,,,0.04,meteohub,2013-05-24 15:33:00,
2013-05-24 11:38:00,72.1,59.4,29.95,West,270,4.0,7.0,64,0.01,,,0.04,meteohub,2013-05-24 15:38:00,
2013-05-24 11:43:00,72.9,59.9,29.95,West,270,7.0,7.0,64,0.01,,,0.04,meteohub,2013-05-24 15:43:00,
2013-05-24 11:48:00,72.3,59.0,29.96,West,270,2.0,7.0,63,0.01,,,0.04,meteohub,2013-05-24 15:48:00,
2013-05-24 11:53:00,71.2,58.8,29.96,NW,315,4.0,7.0,65,0.01,,,0.04,meteohub,2013-05-24 15:53:00,
2013-05-24 11:59:00,71.1,59.2,29.97,NW,315,4.0,7.0,66,0.01,,,0.04,meteohub,2013-05-24 15:59:00,
2013-05-24 12:04:00,71.6,58.8,29.97,NW,315,4.0,6.0,64,0.01,,,0.04,meteohub,2013-05-24 16:04:00,
2013-05-24 12:09:00,71.8,59.0,29.97,NW,315,6.0,6.0,64,0.01,,,0.04,meteohub,2013-05-24 16:09:00,
2013-05-24 12:14:00,72.0,59.2,29.97,NW,315,2.0,8.0,64,0.01,,,0.04,meteohub,2013-05-24 16:14:00,
2013-05-24 12:19:00,72.0,59.5,29.97,North,0,4.0,8.0,65,0.01,,,0.04,meteohub,2013-05-24 16:19:00,
2013-05-24 12:24:00,71.4,58.6,29.97,NW,315,3.0,8.0,64,0.01,,,0.04,meteohub,2013-05-24 16:24:00,
2013-05-24 12:29:00,70.7,57.9,29.97,NW,315,2.0,8.0,64,0.01,,,0.04,meteohub,2013-05-24 16:29:00,
2013-05-24 12:34:00,71.4,59.0,29.97,South,180,2.0,6.0,65,0.00,,,0.04,meteohub,2013-05-24 16:34:00,
2013-05-24 12:39:00,71.8,57.6,29.98,NW,315,3.0,6.0,61,0.00,,,0.04,meteohub,2013-05-24 16:39:00,
2013-05-24 12:44:00,71.8,58.1,29.98,NW,315,6.0,6.0,62,0.00,,,0.04,meteohub,2013-05-24 16:44:00,
2013-05-24 12:49:00,72.7,58.5,29.98,West,270,4.0,6.0,61,0.00,,,0.04,meteohub,2013-05-24 16:49:00,
2013-05-24 12:54:00,73.2,57.6,29.98,West,270,7.0,7.0,58,0.00,,,0.04,meteohub,2013-05-24 16:54:00,
2013-05-24 12:59:00,72.5,56.5,29.98,NW,315,11.0,11.0,57,0.00,,,0.04,meteohub,2013-05-24 16:59:00,
2013-05-24 13:04:00,72.5,57.7,29.98,North,0,5.0,9.0,60,0.00,,,0.04,meteohub,2013-05-24 17:04:00,
2013-05-24 13:09:00,72.7,58.5,29.98,NW,315,3.0,11.0,61,0.00,,,0.04,meteohub,2013-05-24 17:09:00,
2013-05-24 13:14:00,73.2,58.1,29.98,NE,45,3.0,11.0,59,0.00,,,0.04,meteohub,2013-05-24 17:14:00,
2013-05-24 13:19:00,72.7,57.9,29.98,North,0,4.0,8.0,60,0.00,,,0.04,meteohub,2013-05-24 17:19:00,
2013-05-24 13:24:00,72.5,56.8,29.98,North,0,3.0,8.0,58,0.00,,,0.04,meteohub,2013-05-24 17:24:00,
2013-05-24 13:29:00,72.3,56.3,29.99,West,270,6.0,8.0,57,0.00,,,0.04,meteohub,2013-05-24 17:29:00,
2013-05-24 13:34:00,72.7,56.1,29.98,North,0,3.0,8.0,56,0.00,,,0.04,meteohub,2013-05-24 17:34:00,
2013-05-24 13:39:00,72.5,55.9,29.99,NE,45,5.0,6.0,56,0.00,,,0.04,meteohub,2013-05-24 17:39:00,
2013-05-24 13:44:00,72.5,55.4,29.99,West,270,4.0,6.0,55,0.00,,,0.04,meteohub,2013-05-24 17:44:00,
2013-05-24 13:49:00,72.7,55.0,29.99,West,270,3.0,6.0,54,0.00,,,0.04,meteohub,2013-05-24 17:49:00,
2013-05-24 13:54:00,73.0,55.4,29.99,North,0,4.0,7.0,54,0.00,,,0.04,meteohub,2013-05-24 17:54:00,
2013-05-24 13:59:00,73.2,55.0,29.99,NW,315,5.0,7.0,53,0.00,,,0.04,meteohub,2013-05-24 17:59:00,
2013-05-24 14:04:00,73.0,54.9,29.99,NW,315,5.0,8.0,53,0.00,,,0.04,meteohub,2013-05-24 18:04:00,
2013-05-24 14:09:00,72.9,55.2,29.99,West,270,8.0,8.0,54,0.00,,,0.04,meteohub,2013-05-24 18:09:00,
2013-05-24 14:14:00,73.4,55.8,29.99,NW,315,4.0,8.0,54,0.00,,,0.04,meteohub,2013-05-24 18:14:00,
2013-05-24 14:19:00,73.2,54.5,29.99,North,0,6.0,8.0,52,0.00,,,0.04,meteohub,2013-05-24 18:19:00,
2013-05-24 14:24:00,72.3,53.8,29.99,West,270,4.0,8.0,52,0.00,,,0.04,meteohub,2013-05-24 18:24:00,
2013-05-24 14:29:00,72.1,53.1,29.99,NW,315,4.0,8.0,51,0.00,,,0.04,meteohub,2013-05-24 18:29:00,
2013-05-24 14:34:00,72.5,54.0,29.99,East,90,4.0,11.0,52,0.00,,,0.04,meteohub,2013-05-24 18:34:00,
2013-05-24 14:39:00,73.6,54.3,30.00,North,0,3.0,11.0,51,0.00,,,0.04,meteohub,2013-05-24 18:39:00,
2013-05-24 14:44:00,72.9,53.6,29.99,West,270,3.0,11.0,51,0.00,,,0.04,meteohub,2013-05-24 18:44:00,
2013-05-24 14:49:00,72.9,53.6,29.99,West,270,3.0,7.0,51,0.00,,,0.04,meteohub,2013-05-24 18:49:00,
2013-05-24 14:54:00,72.7,52.9,30.01,West,270,7.0,7.0,50,0.00,,,0.04,meteohub,2013-05-24 18:54:00,
2013-05-24 14:59:00,73.0,53.8,30.00,North,0,4.0,7.0,51,0.00,,,0.04,meteohub,2013-05-24 18:59:00,
2013-05-24 15:04:00,73.6,52.7,30.00,NW,315,8.0,8.0,48,0.00,,,0.04,meteohub,2013-05-24 19:04:00,
2013-05-24 15:09:00,73.6,52.7,30.00,NW,315,8.0,8.0,48,0.00,,,0.04,meteohub,2013-05-24 19:09:00,
2013-05-24 15:14:00,73.4,52.0,30.00,NW,315,6.0,8.0,47,0.00,,,0.04,meteohub,2013-05-24 19:14:00,
2013-05-24 15:19:00,73.2,52.3,30.01,North,0,3.0,8.0,48,0.00,,,0.04,meteohub,2013-05-24 19:19:00,
2013-05-24 15:24:00,73.0,52.2,30.00,West,270,6.0,8.0,48,0.00,,,0.04,meteohub,2013-05-24 19:24:00,
2013-05-24 15:29:00,73.4,52.5,30.00,North,0,8.0,8.0,48,0.00,,,0.04,meteohub,2013-05-24 19:29:00,
2013-05-24 15:34:00,73.2,51.3,30.01,North,0,6.0,8.0,46,0.00,,,0.04,meteohub,2013-05-24 19:34:00,
2013-05-24 15:39:00,72.7,49.5,30.01,North,0,8.0,8.0,44,0.00,,,0.04,meteohub,2013-05-24 19:39:00,
2013-05-24 15:44:00,72.3,49.1,30.01,North,0,8.0,8.0,44,0.00,,,0.04,meteohub,2013-05-24 19:44:00,
2013-05-24 15:49:00,71.6,47.8,30.01,NW,315,9.0,9.0,43,0.00,,,0.04,meteohub,2013-05-24 19:49:00,
2013-05-24 15:54:00,71.4,48.4,30.02,NW,315,4.0,8.0,44,0.00,,,0.04,meteohub,2013-05-24 19:54:00,
2013-05-24 15:59:00,72.0,48.9,30.01,North,0,4.0,9.0,44,0.00,,,0.04,meteohub,2013-05-24 19:59:00,
2013-05-24 16:04:00,71.8,47.5,30.02,NW,315,4.0,9.0,42,0.00,,,0.04,meteohub,2013-05-24 20:04:00,
2013-05-24 16:09:00,70.9,47.3,30.01,NW,315,8.0,9.0,43,0.00,,,0.04,meteohub,2013-05-24 20:09:00,
2013-05-24 16:14:00,69.8,46.9,30.01,NW,315,8.0,8.0,44,0.00,,,0.04,meteohub,2013-05-24 20:14:00,
2013-05-24 16:19:00,69.6,47.8,30.01,NW,315,4.0,11.0,46,0.00,,,0.04,meteohub,2013-05-24 20:19:00,
2013-05-24 16:24:00,69.4,47.8,30.01,West,270,5.0,11.0,46,0.00,,,0.04,meteohub,2013-05-24 20:24:00,
2013-05-24 16:29:00,69.1,47.5,30.02,NW,315,4.0,11.0,46,0.00,,,0.04,meteohub,2013-05-24 20:29:00,
2013-05-24 16:34:00,69.1,48.6,30.02,NW,315,4.0,9.0,48,0.00,,,0.04,meteohub,2013-05-24 20:34:00,
2013-05-24 16:39:00,69.3,48.2,30.01,West,270,7.0,8.0,47,0.00,,,0.04,meteohub,2013-05-24 20:39:00,
2013-05-24 16:44:00,69.3,47.7,30.02,NW,315,4.0,8.0,46,0.00,,,0.04,meteohub,2013-05-24 20:44:00,
2013-05-24 16:50:00,69.1,48.0,30.02,NW,315,4.0,8.0,47,0.00,,,0.04,meteohub,2013-05-24 20:50:00,
2013-05-24 16:55:00,69.1,47.5,30.02,West,270,4.0,8.0,46,0.00,,,0.04,meteohub,2013-05-24 20:55:00,
2013-05-24 17:00:00,68.9,47.3,30.02,NW,315,4.0,8.0,46,0.00,,,0.04,meteohub,2013-05-24 21:00:00,
2013-05-24 17:05:00,68.7,47.1,30.03,NW,315,5.0,6.0,46,0.00,,,0.04,meteohub,2013-05-24 21:05:00,
2013-05-24 17:10:00,68.7,47.1,30.03,North,0,3.0,6.0,46,0.00,,,0.04,meteohub,2013-05-24 21:10:00,
2013-05-24 17:15:00,68.5,46.9,30.03,North,0,4.0,6.0,46,0.00,,,0.04,meteohub,2013-05-24 21:15:00,
2013-05-24 17:20:00,68.5,46.4,30.04,NW,315,8.0,11.0,45,0.00,,,0.04,meteohub,2013-05-24 21:20:00,
2013-05-24 17:25:00,68.4,46.2,30.04,North,0,6.0,11.0,45,0.00,,,0.04,meteohub,2013-05-24 21:25:00,
2013-05-24 17:30:00,68.2,47.1,30.04,NW,315,7.0,11.0,47,0.00,,,0.04,meteohub,2013-05-24 21:30:00,
2013-05-24 17:35:00,68.0,46.4,30.04,NW,315,4.0,10.0,46,0.00,,,0.04,meteohub,2013-05-24 21:35:00,
2013-05-24 17:40:00,68.0,46.9,30.04,North,0,6.0,10.0,47,0.00,,,0.04,meteohub,2013-05-24 21:40:00,
2013-05-24 17:45:00,67.8,48.0,30.04,NW,315,4.0,9.0,49,0.00,,,0.04,meteohub,2013-05-24 21:45:00,
2013-05-24 17:50:00,67.8,47.5,30.04,North,0,2.0,7.0,48,0.00,,,0.04,meteohub,2013-05-24 21:50:00,
2013-05-24 17:55:00,68.0,47.7,30.04,North,0,3.0,6.0,48,0.00,,,0.04,meteohub,2013-05-24 21:55:00,
2013-05-24 18:00:00,67.8,47.5,30.04,North,0,5.0,7.0,48,0.00,,,0.04,meteohub,2013-05-24 22:00:00,
2013-05-24 18:05:00,67.8,49.1,30.05,North,0,4.0,8.0,51,0.00,,,0.04,meteohub,2013-05-24 22:05:00,
2013-05-24 18:10:00,68.0,47.7,30.05,North,0,3.0,8.0,48,0.00,,,0.04,meteohub,2013-05-24 22:10:00,
2013-05-24 18:15:00,67.8,46.9,30.05,North,0,3.0,8.0,47,0.00,,,0.04,meteohub,2013-05-24 22:15:00,
2013-05-24 18:20:00,67.5,47.1,30.05,NW,315,4.0,8.0,48,0.00,,,0.04,meteohub,2013-05-24 22:20:00,
2013-05-24 18:25:00,67.5,47.1,30.06,NW,315,6.0,8.0,48,0.00,,,0.04,meteohub,2013-05-24 22:25:00,
2013-05-24 18:30:00,67.5,46.6,30.06,NW,315,4.0,6.0,47,0.00,,,0.04,meteohub,2013-05-24 22:30:00,
2013-05-24 18:35:00,67.5,46.6,30.06,North,0,3.0,6.0,47,0.00,,,0.04,meteohub,2013-05-24 22:35:00,
2013-05-24 18:40:00,67.3,46.4,30.06,North,0,3.0,7.0,47,0.00,,,0.04,meteohub,2013-05-24 22:40:00,
2013-05-24 18:45:00,67.1,45.0,30.06,North,0,4.0,7.0,45,0.00,,,0.04,meteohub,2013-05-24 22:45:00,
2013-05-24 18:50:00,66.9,45.0,30.06,North,0,4.0,8.0,45,0.00,,,0.04,meteohub,2013-05-24 22:50:00,
2013-05-24 18:55:00,66.7,44.8,30.07,NW,315,4.0,8.0,45,0.00,,,0.04,meteohub,2013-05-24 22:55:00,
2013-05-24 19:00:00,66.7,44.8,30.07,West,270,4.0,8.0,45,0.00,,,0.04,meteohub,2013-05-24 23:00:00,
2013-05-24 19:05:00,66.6,44.6,30.06,North,0,3.0,6.0,45,0.00,,,0.04,meteohub,2013-05-24 23:05:00,
2013-05-24 19:10:00,66.6,45.1,30.07,NW,315,3.0,4.0,46,0.00,,,0.04,meteohub,2013-05-24 23:10:00,
2013-05-24 19:15:00,66.4,45.0,30.07,NW,315,5.0,5.0,46,0.00,,,0.04,meteohub,2013-05-24 23:15:00,
2013-05-24 19:20:00,66.0,45.1,30.08,North,0,4.0,5.0,47,0.00,,,0.04,meteohub,2013-05-24 23:20:00,
2013-05-24 19:25:00,65.8,45.0,30.08,North,0,2.0,5.0,47,0.00,,,0.04,meteohub,2013-05-24 23:25:00,
2013-05-24 19:30:00,65.7,46.0,30.09,North,0,2.0,5.0,49,0.00,,,0.04,meteohub,2013-05-24 23:30:00,
2013-05-24 19:35:00,65.5,46.4,30.09,West,270,2.0,5.0,50,0.00,,,0.04,meteohub,2013-05-24 23:35:00,
2013-05-24 19:40:00,65.3,46.2,30.09,NW,315,2.0,3.0,50,0.00,,,0.04,meteohub,2013-05-24 23:40:00,
2013-05-24 19:45:00,65.1,46.6,30.09,NE,45,2.0,3.0,51,0.00,,,0.04,meteohub,2013-05-24 23:45:00,
2013-05-24 19:50:00,64.9,46.4,30.09,North,0,2.0,3.0,51,0.00,,,0.04,meteohub,2013-05-24 23:50:00,
2013-05-24 19:55:00,64.6,46.0,30.09,NW,315,3.0,3.0,51,0.00,,,0.04,meteohub,2013-05-24 23:55:00,
2013-05-24 20:00:00,64.2,46.2,30.09,North,0,2.0,3.0,52,0.00,,,0.04,meteohub,2013-05-25 00:00:00,
2013-05-24 20:05:00,63.9,45.9,30.10,NW,315,2.0,3.0,52,0.00,,,0.00,meteohub,2013-05-25 00:05:00,
2013-05-24 20:10:00,63.7,45.7,30.10,NW,315,2.0,3.0,52,0.00,,,0.00,meteohub,2013-05-25 00:10:00,
2013-05-24 20:15:00,63.5,45.0,30.10,West,270,4.0,4.0,51,0.00,,,0.00,meteohub,2013-05-25 00:15:00,
2013-05-24 20:20:00,63.5,45.5,30.10,NE,45,1.0,4.0,52,0.00,,,0.00,meteohub,2013-05-25 00:20:00,
2013-05-24 20:25:00,63.1,45.7,30.11,North,0,0.0,4.0,53,0.00,,,0.00,meteohub,2013-05-25 00:25:00,
2013-05-24 20:30:00,63.0,45.5,30.11,North,0,0.0,4.0,53,0.00,,,0.00,meteohub,2013-05-25 00:30:00,
2013-05-24 20:35:00,62.6,45.7,30.12,North,0,1.0,1.0,54,0.00,,,0.00,meteohub,2013-05-25 00:35:00,
2013-05-24 20:40:00,62.2,45.9,30.12,North,0,1.0,1.0,55,0.00,,,0.00,meteohub,2013-05-25 00:40:00,
2013-05-24 20:45:00,62.1,45.7,30.12,North,0,0.0,1.0,55,0.00,,,0.00,meteohub,2013-05-25 00:45:00,
2013-05-24 20:50:00,61.9,46.4,30.12,North,0,0.0,1.0,57,0.00,,,0.00,meteohub,2013-05-25 00:50:00,
2013-05-24 20:55:00,61.5,46.2,30.13,North,0,1.0,1.0,57,0.00,,,0.00,meteohub,2013-05-25 00:55:00,
2013-05-24 21:00:00,61.2,45.3,30.13,North,0,1.0,1.0,56,0.00,,,0.00,meteohub,2013-05-25 01:00:00,
2013-05-24 21:05:00,61.0,45.7,30.14,North,0,0.0,1.0,57,0.00,,,0.00,meteohub,2013-05-25 01:05:00,
2013-05-24 21:10:00,60.8,46.8,30.14,North,0,1.0,1.0,60,0.00,,,0.00,meteohub,2013-05-25 01:10:00,
2013-05-24 21:15:00,60.3,47.7,30.14,North,0,0.0,1.0,63,0.00,,,0.00,meteohub,2013-05-25 01:15:00,
2013-05-24 21:20:00,59.9,47.3,30.14,North,0,0.0,1.0,63,0.00,,,0.00,meteohub,2013-05-25 01:20:00,
2013-05-24 21:25:00,59.4,47.1,30.14,North,0,0.0,1.0,64,0.00,,,0.00,meteohub,2013-05-25 01:25:00,
2013-05-24 21:30:00,58.8,47.8,30.14,North,0,0.0,0.0,67,0.00,,,0.00,meteohub,2013-05-25 01:30:00,
2013-05-24 21:35:00,58.3,47.8,30.15,North,0,0.0,0.0,68,0.00,,,0.00,meteohub,2013-05-25 01:35:00,
2013-05-24 21:40:00,57.9,47.5,30.15,North,0,0.0,0.0,68,0.00,,,0.00,meteohub,2013-05-25 01:40:00,
2013-05-24 21:45:00,57.7,47.7,30.15,North,0,0.0,0.0,69,0.00,,,0.00,meteohub,2013-05-25 01:45:00,
2013-05-24 21:50:00,57.4,47.3,30.16,North,0,1.0,0.0,69,0.00,,,0.00,meteohub,2013-05-25 01:50:00,
2013-05-24 21:55:00,57.2,47.5,30.16,North,0,0.0,1.0,70,0.00,,,0.00,meteohub,2013-05-25 01:55:00,
2013-05-24 22:00:00,57.2,47.5,30.16,North,0,0.0,1.0,70,0.00,,,0.00,meteohub,2013-05-25 02:00:00,
2013-05-24 22:05:00,57.0,48.0,30.17,North,0,0.0,1.0,72,0.00,,,0.00,meteohub,2013-05-25 02:05:00,
2013-05-24 22:10:00,56.7,47.7,30.17,North,0,0.0,0.0,72,0.00,,,0.00,meteohub,2013-05-25 02:10:00,
2013-05-24 22:15:00,56.5,47.5,30.17,North,0,0.0,0.0,72,0.00,,,0.00,meteohub,2013-05-25 02:15:00,
2013-05-24 22:20:00,56.1,46.8,30.18,North,0,0.0,0.0,71,0.00,,,0.00,meteohub,2013-05-25 02:20:00,
2013-05-24 22:25:00,55.9,46.8,30.18,North,0,0.0,0.0,71,0.00,,,0.00,meteohub,2013-05-25 02:25:00,
2013-05-24 22:30:00,55.6,47.8,30.18,North,0,0.0,0.0,75,0.00,,,0.00,meteohub,2013-05-25 02:30:00,
2013-05-24 22:36:00,55.4,47.7,30.18,North,0,0.0,0.0,75,0.00,,,0.00,meteohub,2013-05-25 02:36:00,
2013-05-24 22:41:00,55.4,47.7,30.19,North,0,0.0,0.0,75,0.00,,,0.00,meteohub,2013-05-25 02:41:00,
2013-05-24 22:46:00,55.4,47.3,30.19,NE,45,0.0,0.0,74,0.00,,,0.00,meteohub,2013-05-25 02:46:00,
2013-05-24 22:51:00,55.8,46.6,30.19,NE,45,0.0,0.0,71,0.00,,,0.00,meteohub,2013-05-25 02:51:00,
2013-05-24 22:56:00,56.3,46.2,30.19,NE,45,1.0,1.0,69,0.00,,,0.00,meteohub,2013-05-25 02:56:00,
2013-05-24 23:01:00,56.7,46.2,30.19,NE,45,2.0,2.0,68,0.00,,,0.00,meteohub,2013-05-25 03:01:00,
2013-05-24 23:06:00,57.0,46.2,30.20,NE,45,2.0,2.0,67,0.00,,,0.00,meteohub,2013-05-25 03:06:00,
2013-05-24 23:11:00,56.8,46.0,30.19,NW,315,2.0,2.0,67,0.00,,,0.00,meteohub,2013-05-25 03:11:00,
2013-05-24 23:16:00,56.7,45.9,30.20,NW,315,0.0,2.0,67,0.00,,,0.00,meteohub,2013-05-25 03:16:00,
2013-05-24 23:21:00,56.5,45.7,30.20,NE,45,0.0,2.0,67,0.00,,,0.00,meteohub,2013-05-25 03:21:00,
2013-05-24 23:26:00,56.1,45.3,30.20,West,270,1.0,2.0,67,0.00,,,0.00,meteohub,2013-05-25 03:26:00,
2013-05-24 23:31:00,55.9,45.1,30.20,West,270,0.0,1.0,67,0.00,,,0.00,meteohub,2013-05-25 03:31:00,
2013-05-24 23:36:00,55.9,45.1,30.20,West,270,0.0,1.0,67,0.00,,,0.00,meteohub,2013-05-25 03:36:00,
2013-05-24 23:41:00,55.2,46.0,30.20,West,270,0.0,1.0,71,0.00,,,0.00,meteohub,2013-05-25 03:41:00,
2013-05-24 23:46:00,54.9,45.7,30.19,NE,45,0.0,1.0,71,0.00,,,0.00,meteohub,2013-05-25 03:46:00,
2013-05-24 23:51:00,54.9,45.7,30.20,West,270,1.0,1.0,71,0.00,,,0.00,meteohub,2013-05-25 03:51:00,
2013-05-24 23:56:00,54.7,45.9,30.20,West,270,0.0,2.0,72,0.00,,,0.00,meteohub,2013-05-25 03:56:00,